Regional Weather Roundup
Issued by NWS Charleston, WV

Home | Current Version | Previous Version | Graphics & Text | Print | Product List | Glossary On
Versions: 1 2 3 4 5 6 7 8 9 10 11 12 13 14 15 16 17 18 19 20 21 22 23 24 25 26 27 28 29 30 31 32 33 34 35 36 37 38 39 40 41 42 43 44 45 46 47 48 49 50
000
ASUS41 KRLX 311110
RWRRLX
West Virginia Regional Weather Roundup
National Weather Service Charleston WV
700 AM EDT MON AUG 31 2015

Note: "fair" indicates few or no clouds below 12,000 feet with no
significant weather and/or obstructions to visibility.

WVZ003-311200-
Northern Panhandle of West Virginia

CITY           SKY/WX    TMP DP  RH WIND       PRES   REMARKS
WHEELING       MOCLDY    68  65  90 SW5       30.11R FOG
$$

WVZ009-311200-
Northwest West Virginia

CITY           SKY/WX    TMP DP  RH WIND       PRES   REMARKS
PARKERSBURG    CLOUDY    67  65  93 CALM      30.13R
$$

WVZ006-311200-
Western West Virginia

CITY           SKY/WX    TMP DP  RH WIND       PRES   REMARKS
HUNTINGTON     PTCLDY    65  64  97 CALM      30.11R FOG
$$

WVZ015-311200-
West Central West Virginia

CITY           SKY/WX    TMP DP  RH WIND       PRES   REMARKS
CHARLESTON     FOG       66  64  93 CALM      30.12R VSB 1
$$

WVZ022-031-311200-
North Central West Virginia

CITY           SKY/WX    TMP DP  RH WIND       PRES   REMARKS
CLARKSBURG     CLOUDY    66  65  96 CALM      30.12R
MORGANTOWN     CLOUDY    70  65  84 CALM      30.13R
$$

WVZ025-035-042-045-311200-
Southern West Virginia

CITY           SKY/WX    TMP DP  RH WIND       PRES   REMARKS
BECKLEY        CLOUDY    64  60  87 CALM      30.19R
LOGAN            N/A     66  66 100 CALM      30.14S FOG
BLUEFIELD      CLOUDY    65  59  81 CALM      30.20R
LEWISBURG      CLOUDY    65  63  94 CALM      30.19R FOG
$$

WVZ047-311200-
Northern Mountains of West Virginia

CITY           SKY/WX    TMP DP  RH WIND       PRES   REMARKS
ELKINS         CLOUDY    63  60  90 CALM      30.18R
$$

WVZ052-311200-
Eastern Panhandle of West Virginia

CITY           SKY/WX    TMP DP  RH WIND       PRES   REMARKS
MARTINSBURG    CLOUDY    69  64  84 CALM      30.09R
PETERSBURG     FOG       67  67  99 CALM      30.13R VSB 1/2
$$



USA.gov is the U.S. government's official web portal to all federal, state and local government web resources and services.